Location: *
(51.2167°N, 10.0667°E)
Time: 17:20:40
(UTC+00:00)

SL-4 R/B - Pass Details

Date: 12 December 2019
Orbit: 428 x 667 km, 51.6° (Epoch: 26 January)

Event Time Altitude Azimuth Distance (km) Brightness Sun altitude
Rises 16:53:55 0° 268° (W) 2,510 6.9 -14.9°
Reaches altitude 10° 16:56:00 10° 269° (W) 1,666 5.7 -15.2°
Maximum altitude 16:59:46 83° 358° (N) 521 1.8 -15.7°
Enters shadow 17:01:32 32° 84° (E) 919 2.6 -16.0°
